Regional Weather Roundup
Issued by NWS

Home | Current Version | Previous Version | Text Only | Print | Product List | Glossary On
Versions: 1 2 3 4 5 6 7 8 9 10 11 12 13 14 15 16 17 18 19 20 21 22 23 24 25 26 27 28
000
ASUS44 KBMX 280710
RWRAL

ALABAMA REGIONAL WEATHER ROUNDUP
NATIONAL WEATHER SERVICE BIRMINGHAM AL
200 AM CDT SUN AUG 28 2016

NOTE: "FAIR" INDICATES FEW OR NO CLOUDS BELOW 12,000 FEET
WITH NO SIGNIFICANT WEATHER AND/OR OBSTRUCTIONS TO VISIBILITY.

THE REMARK "TC" DENOTES TEMPERATURE IN DEGREES CELSIUS.

ALZ001>011-014-016>018-020-280800-
NORTH ALABAMA

CITY           SKY/WX    TMP DP  RH WIND       PRES   REMARKS
MUSCLE SHOALS  CLEAR     75  72  90 SE3       30.08F
HUNTSVILLE     CLEAR     77  71  82 E5        30.08F
DECATUR        CLEAR     72  71  97 NE5       30.09F
HALEYVILLE     NOT AVBL
GADSDEN        CLEAR     73  71  93 CALM      30.08F
$$

ALZ012-013-022-023-030>036-040>044-280800-
WEST CENTRAL ALABAMA

CITY           SKY/WX    TMP DP  RH WIND       PRES   REMARKS
TUSCALOOSA     CLEAR     73  72  96 CALM      30.03F
$$

ALZ015-024>027-033>036-040>044-280800-
CENTRAL ALABAMA

CITY           SKY/WX    TMP DP  RH WIND       PRES   REMARKS
BIRMINGHAM     CLEAR     76  69  79 CALM      30.08F
MONTGOMERY     CLEAR     76  67  73 CALM      30.03S
SHELBY CO ARPT CLEAR     73  69  87 CALM      30.05F
MAXWELL AFB    CLEAR     77  71  83 N2        30.02F
GREENVILLE     FAIR      75  69  81 N3        30.03S
$$

ALZ019-021-028-029-037-038-045>048-280800-
EAST CENTRAL ALABAMA

CITY           SKY/WX    TMP DP  RH WIND       PRES   REMARKS
ANNISTON       CLEAR     76  69  79 NE6       30.07F
ALEXANDER CITY CLEAR     75  75 100 CALM      30.07F
AUBURN         CLEAR     76  65  68 E5        30.08S
$$

ALZ051>064-280800-
SOUTHWEST ALABAMA

CITY           SKY/WX    TMP DP  RH WIND       PRES   REMARKS
MOBILE         CLEAR     74  72  93 N3        30.00F
BROOKLEY FIELD CLEAR     76  75  97 NW3       30.00F
EVERGREEN      CLOUDY    74  71  91 CALM      30.01F
$$

ALZ049-050-065>069-280800-
SOUTHEAST ALABAMA

CITY           SKY/WX    TMP DP  RH WIND       PRES   REMARKS
DOTHAN         CLOUDY    76  74  93 E3        30.06F
OZARK          MOCLDY    76  73  88 NE5       30.02F
TROY           CLEAR     72  71  97 E3        30.05S
EUFAULA        FAIR      74  71  91 CALM      30.03F
$$




USA.gov is the U.S. government's official web portal to all federal, state and local government web resources and services.